Content
SEND FEEDBACK

Daily
Averages
Monthly
Summary
United States of America

ASHEVILLE, NORTH CAROLINA


Home > North America > United States > North Carolina
Elevation: 2240 feet     Latitude: 35 36N     Longitude: 082 32W

WEATHER
 
SELECT A DAY
Number of Records: 231,105;   Date Range: 1/1/95 - 12/18/14
 
SHARE

PRINT THIS DATA

[ ← Previous Day ]
WEATHER ALMANAC - APRIL 6, 2013
[ Next Day → ]
[ °C ]   °F
Weather ElementAverageHighLow
Temperature51.1 °F64.9 °F (3:54 pm)34 °F (6:54 am)
Dewpoint32.4 °F37.9 °F (10:54 am)30 °F (4:54 pm)
Humidity54.7 %92 % (6:54 am)28 % (4:54 pm)
Barometer30.15 in30.22 in (8:54 am)30.10 in (2:54 am)
Wind Speed6 mph13.8 mph (3:54 pm)
Wind Gust20.7 mph (2:54 pm)
Weather ElementAverage
Visibility10 mi
Wind DirectionSSE (146.5 °)

Weather ElementTotal
Precipitation---
Heating Degree Days15.6 (Base 65)
Averaged from 23 records on April 6, 2013
WEATHER CONDITIONS BREAKOUT
WIND DIRECTION BREAKOUT
WEATHER BY HOUR - APRIL 6, 2013
[ °C ]   °F
Local TimeTemperatureDewpointHumidityBarometerVisibilityWind DirectionWind SpeedGust SpeedPrecipitationEventsConditions
1:54 AM39.0 °F35.1 °F86 %30.11 in10.0 miNNW (330°)8.1 mphClear
2:54 AM37.0 °F33.1 °F86 %30.10 in10.0 miNNW (330°)10.4 mphClear
3:54 AM36.0 °F33.1 °F89 %30.10 in10.0 miNNW (340°)8.1 mphClear
4:54 AM39.0 °F32.0 °F76 %30.10 in10.0 miNorth (350°)5.8 mphClear
5:54 AM35.1 °F32.0 °F89 %30.13 in10.0 miNW (320°)5.8 mphClear
6:54 AM34.0 °F32.0 °F92 %30.17 in10.0 miCalmClear
7:54 AM34.0 °F32.0 °F92 %30.20 in10.0 miCalmClear
8:54 AM41.0 °F35.1 °F79 %30.22 in10.0 miCalmClear
9:54 AM46.9 °F36.0 °F66 %30.22 in10.0 miCalmClear
10:54 AM55.0 °F37.9 °F53 %30.20 in10.0 miCalmClear
11:54 AM57.9 °F33.1 °F39 %30.20 in10.0 miVariable4.6 mphClear
12:54 PM61.0 °F30.9 °F32 %30.19 in10.0 miVariable5.8 mphClear
1:54 PM63.0 °F30.9 °F30 %30.17 in10.0 miSSE (160°)9.2 mphClear
2:54 PM64.0 °F30.9 °F29 %30.15 in10.0 miSE (140°)9.2 mph20.7 mphClear
3:54 PM64.9 °F32.0 °F29 %30.13 in10.0 miSSE (160°)13.8 mph19.6 mphClear
4:54 PM64.0 °F30.0 °F28 %30.12 in10.0 miSE (130°)10.4 mph18.4 mphClear
5:54 PM63.0 °F30.9 °F30 %30.13 in10.0 miSSE (150°)12.7 mphClear
6:54 PM62.1 °F30.0 °F30 %30.14 in10.0 miSSE (150°)9.2 mphClear
7:54 PM60.1 °F30.0 °F32 %30.15 in10.0 miSSE (160°)6.9 mphClear
8:54 PM57.9 °F30.0 °F35 %30.15 in10.0 miSE (140°)4.6 mphClear
9:54 PM57.0 °F30.0 °F36 %30.16 in10.0 miSE (140°)4.6 mphClear
10:54 PM52.0 °F34.0 °F50 %30.16 in10.0 miSSW (200°)4.6 mphClear
11:54 PM51.1 °F33.1 °F50 %30.16 in10.0 miSouth (170°)3.5 mphClear
Hourly data recorded from KAVL, located miles away from Asheville, North Carolina







STORIES FROM OUR PARTNERS